Wind_Speed
15 16 17 20 20 19 21 22 23 21 20 20 20 20 20 20 18 18 19 19 18 19
14 16 18 19 19 20 21 23 22 20 20 21 20 20 20 18 19 19 18 19 17 16
14 16 18 19 21 21 22 23 21 21 21 21 21 21 20 19 20 20 20 19 17 18
15 16 19 20 21 22 23 23 21 21 22 22 22 22 20 21 22 24 22 19 17 17
16 17 19 21 22 23 23 22 21 21 21 22 22 21 22 26 26 26 23 22 18 16
18 18 21 22 23 23 23 22 21 21 21 22 22 21 26 28 28 26 23 20 18 16
18 19 21 22 22 23 22 22 21 21 22 22 22 22 29 32 32 26 21 19 18 18
18 19 20 21 22 23 22 21 21 22 23 23 22 25 32 35 33 24 23 20 20 18
18 19 20 21 22 23 22 22 22 23 24 25 23 28 33 36 30 25 22 23 20 17
19 20 21 21 22 23 23 23 23 24 25 26 25 30 36 39 29 25 25 24 20 19
19 20 21 21 22 23 22 23 24 25 26 27 27 32 39 42 31 27 28 23 20 18
19 19 20 21 22 23 23 23 24 25 26 28 30 34 40 40 32 30 28 24 22 20
18 18 19 20 21 22 22 23 23 25 25 28 31 35 41 40 33 34 30 26 25 23
17 17 18 19 20 22 23 23 25 26 26 28 31 35 39 38 36 35 31 28 28 29
Wind_Direction
1 358 354 351 348 346 344 340 336 335 332 330 326 324 321 312 308 309 305 304 307 300
358 356 353 350 349 346 342 339 336 334 332 332 330 328 325 321 315 314 316 306 303 295
353 352 350 348 347 343 340 339 337 335 334 334 333 333 331 327 328 318 312 303 297 295
349 348 348 346 344 342 339 340 338 335 335 336 336 338 335 333 323 316 313 309 303 293
349 346 346 344 343 342 341 340 338 338 339 340 341 341 338 333 327 321 316 316 305 295
351 348 346 344 343 343 341 341 342 343 343 343 343 342 342 335 332 325 319 314 305 296
351 348 346 345 344 344 344 344 347 346 346 346 346 347 344 338 333 324 318 312 306 300
351 347 348 348 346 346 347 350 348 349 350 351 349 350 342 340 334 327 325 319 313 305
353 352 352 351 350 351 353 353 352 353 353 351 350 352 345 343 336 335 330 324 319 313
356 356 355 353 353 356 356 354 355 354 354 353 351 353 350 348 344 339 333 328 325 322
358 358 357 356 358 359 358 356 356 354 354 355 354 357 354 351 349 344 341 337 333 330
0 359 359 360 1 2 359 359 359 356 357 357 356 359 357 354 352 348 346 343 341 340
3 3 2 1 5 3 2 1 0 1 1 359 358 358 357 357 355 353 351 350 346 343
8 6 5 5 8 5 4 4 5 5 3 2 359 357 358 357 358 355 351 351 347 346
Height
878 874 871 867 863 858 853 848 843 838 834 829 825 820 815 809 805 801 798 794 792 790
878 875 872 868 863 858 853 848 842 837 832 827 822 817 812 807 802 798 795 792 790 787
879 876 872 867 863 858 853 847 841 836 830 825 820 815 811 805 801 797 793 789 785 782
879 875 871 867 862 857 851 845 840 834 829 824 819 814 809 803 799 793 787 783 780 777
879 875 871 866 861 856 850 844 838 833 828 823 818 812 806 802 796 789 782 778 775 772
878 875 870 866 860 855 849 843 838 833 827 822 817 811 806 799 792 786 780 774 770 767
879 875 870 865 860 854 848 843 837 832 827 821 816 811 806 797 789 781 775 771 767 763
879 875 870 865 860 854 848 843 837 832 826 821 815 811 804 794 785 777 772 767 762 758
880 875 870 865 859 853 848 843 837 831 826 820 814 810 803 793 782 775 768 762 757 753
880 875 870 865 859 854 849 843 837 832 826 820 814 808 801 791 780 772 765 759 754 750
881 876 871 866 860 856 850 844 838 832 826 820 814 807 799 788 779 771 764 757 752 747
882 877 872 867 862 858 852 846 841 834 828 821 814 807 799 789 779 771 763 756 750 745
883 879 874 869 865 861 854 849 843 836 830 823 816 808 800 791 781 772 764 756 749 743
885 881 877 872 868 863 857 851 845 839 832 825 819 811 803 794 785 776 766 757 748 741